Time,TemperatureF,DewpointF,PressureIn,WindDirection,WindDirectionDegrees,WindSpeedMPH,WindSpeedGustMPH,Humidity,HourlyPrecipIn,Conditions,Clouds,dailyrainin,SoftwareType,DateUTC
2013-01-25 00:03:00,47.8,25.3,30.27,ESE,111,0.0,3.0,41,0.00,,OVC,0.00,VWS V14.01,2013-01-25 06:03:00,
2013-01-25 00:08:00,47.7,25.2,30.26,ENE,78,0.0,5.0,41,0.00,,OVC,0.00,VWS V14.01,2013-01-25 06:08:00,
2013-01-25 00:13:00,47.7,24.6,30.26,ESE,106,1.0,5.0,40,0.00,,OVC,0.00,VWS V14.01,2013-01-25 06:13:00,
2013-01-25 00:18:00,47.6,25.1,30.26,East,90,2.0,5.0,41,0.00,,OVC,0.00,VWS V14.01,2013-01-25 06:18:00,
2013-01-25 00:23:00,47.6,25.7,30.26,East,89,0.0,5.0,42,0.00,,OVC,0.00,VWS V14.01,2013-01-25 06:23:00,
2013-01-25 00:28:00,47.5,25.0,30.26,East,85,0.0,5.0,41,0.00,,OVC,0.00,VWS V14.01,2013-01-25 06:28:00,
2013-01-25 00:33:00,47.4,24.9,30.26,East,86,1.0,3.0,41,0.00,,OVC,0.00,VWS V14.01,2013-01-25 06:33:00,
2013-01-25 00:38:00,47.3,26.0,30.26,East,93,1.0,4.0,43,0.00,,OVC,0.00,VWS V14.01,2013-01-25 06:38:00,
2013-01-25 00:43:00,47.1,25.2,30.26,East,97,2.0,6.0,42,0.00,,OVC,0.00,VWS V14.01,2013-01-25 06:43:00,
2013-01-25 00:48:00,46.9,26.1,30.25,South,169,1.0,6.0,44,0.00,,OVC,0.00,VWS V14.01,2013-01-25 06:48:00,
2013-01-25 00:53:00,46.7,26.0,30.25,SSE,167,0.0,6.0,44,0.00,,OVC,0.00,VWS V14.01,2013-01-25 06:53:00,
2013-01-25 00:58:00,46.4,26.2,30.26,SSE,167,0.0,6.0,45,0.00,,OVC,0.00,VWS V14.01,2013-01-25 06:58:00,
2013-01-25 01:03:00,46.2,26.6,30.26,SE,126,0.0,3.0,46,0.00,,OVC,0.00,VWS V14.01,2013-01-25 07:03:00,
2013-01-25 01:08:00,46.0,26.4,30.26,ENE,77,0.0,3.0,46,0.00,,OVC,0.00,VWS V14.01,2013-01-25 07:08:00,
2013-01-25 01:13:00,45.9,25.8,30.26,ENE,68,0.0,3.0,45,0.00,,OVC,0.00,VWS V14.01,2013-01-25 07:13:00,
2013-01-25 01:18:00,45.9,26.8,30.26,ENE,68,0.0,3.0,47,0.00,,OVC,0.00,VWS V14.01,2013-01-25 07:18:00,
2013-01-25 01:23:00,45.9,26.8,30.27,ENE,68,0.0,3.0,47,0.00,,OVC,0.00,VWS V14.01,2013-01-25 07:23:00,
2013-01-25 01:28:00,46.0,27.4,30.27,ENE,68,0.0,3.0,48,0.00,,OVC,0.00,VWS V14.01,2013-01-25 07:28:00,
2013-01-25 01:33:00,46.1,27.0,30.27,ENE,68,0.0,0.0,47,0.00,,OVC,0.00,VWS V14.01,2013-01-25 07:33:00,
2013-01-25 01:38:00,46.1,28.0,30.27,East,85,3.0,3.0,49,0.00,,OVC,0.00,VWS V14.01,2013-01-25 07:38:00,
2013-01-25 01:43:00,46.3,27.7,30.27,East,86,0.0,3.0,48,0.00,,OVC,0.00,VWS V14.01,2013-01-25 07:43:00,
2013-01-25 01:48:00,46.3,27.2,30.27,ENE,68,0.0,3.0,47,0.00,,OVC,0.00,VWS V14.01,2013-01-25 07:48:00,
2013-01-25 01:53:00,46.4,27.3,30.27,East,82,2.0,3.0,47,0.00,,OVC,0.00,VWS V14.01,2013-01-25 07:53:00,
2013-01-25 01:58:00,46.4,27.8,30.28,SE,140,1.0,3.0,48,0.00,,OVC,0.00,VWS V14.01,2013-01-25 07:58:00,
2013-01-25 02:03:00,46.4,27.8,30.27,SE,132,0.0,2.0,48,0.00,,OVC,0.00,VWS V14.01,2013-01-25 08:03:00,
2013-01-25 02:08:00,46.3,28.2,30.27,SE,139,2.0,2.0,49,0.00,,OVC,0.00,VWS V14.01,2013-01-25 08:08:00,
2013-01-25 02:13:00,46.3,28.2,30.27,SSE,166,0.0,4.0,49,0.00,,OVC,0.00,VWS V14.01,2013-01-25 08:13:00,
2013-01-25 02:18:00,46.1,28.0,30.27,East,98,1.0,4.0,49,0.00,,OVC,0.00,VWS V14.01,2013-01-25 08:18:00,
2013-01-25 02:23:00,46.0,28.4,30.26,ESE,109,0.0,4.0,50,0.00,,OVC,0.00,VWS V14.01,2013-01-25 08:23:00,
2013-01-25 02:28:00,45.9,28.3,30.26,ESE,112,2.0,4.0,50,0.00,,OVC,0.00,VWS V14.01,2013-01-25 08:28:00,
2013-01-25 02:33:00,45.7,27.6,30.26,ESE,106,2.0,5.0,49,0.00,,OVC,0.00,VWS V14.01,2013-01-25 08:33:00,
2013-01-25 02:38:00,45.6,28.0,30.25,ESE,106,5.0,6.0,50,0.00,,OVC,0.00,VWS V14.01,2013-01-25 08:38:00,
2013-01-25 02:43:00,45.5,28.0,30.24,SSE,155,0.0,7.0,50,0.00,,OVC,0.00,VWS V14.01,2013-01-25 08:43:00,
2013-01-25 02:48:00,45.4,27.9,30.25,ESE,120,2.0,7.0,50,0.00,,OVC,0.00,VWS V14.01,2013-01-25 08:48:00,
2013-01-25 02:53:00,45.2,27.7,30.25,East,100,2.0,7.0,50,0.00,,OVC,0.00,VWS V14.01,2013-01-25 08:53:00,
2013-01-25 02:58:00,45.1,28.1,30.25,ESE,121,2.0,7.0,51,0.00,,OVC,0.00,VWS V14.01,2013-01-25 08:58:00,
2013-01-25 03:03:00,45.1,28.1,30.26,NE,46,3.0,3.0,51,0.00,,OVC,0.00,VWS V14.01,2013-01-25 09:03:00,
2013-01-25 03:08:00,45.0,28.0,30.26,SW,226,1.0,4.0,51,0.00,,OVC,0.00,VWS V14.01,2013-01-25 09:08:00,
2013-01-25 03:13:00,45.0,28.5,30.25,SE,134,1.0,4.0,52,0.00,,OVC,0.00,VWS V14.01,2013-01-25 09:13:00,
2013-01-25 03:18:00,45.0,28.5,30.25,ENE,73,0.0,5.0,52,0.00,,OVC,0.00,VWS V14.01,2013-01-25 09:18:00,
2013-01-25 03:23:00,45.0,28.5,30.25,ENE,77,0.0,5.0,52,0.00,,OVC,0.00,VWS V14.01,2013-01-25 09:23:00,
2013-01-25 03:28:00,45.0,28.0,30.25,East,96,1.0,5.0,51,0.00,,OVC,0.00,VWS V14.01,2013-01-25 09:28:00,
2013-01-25 03:33:00,45.1,28.5,30.25,East,80,2.0,3.0,52,0.00,,OVC,0.00,VWS V14.01,2013-01-25 09:33:00,
2013-01-25 03:38:00,45.1,29.0,30.25,East,80,1.0,3.0,53,0.00,,OVC,0.00,VWS V14.01,2013-01-25 09:38:00,
2013-01-25 03:43:00,45.1,28.1,30.25,NE,51,1.0,5.0,51,0.00,,OVC,0.00,VWS V14.01,2013-01-25 09:43:00,
2013-01-25 03:48:00,45.2,28.6,30.25,NE,49,0.0,5.0,52,0.00,,OVC,0.00,VWS V14.01,2013-01-25 09:48:00,
2013-01-25 03:53:00,45.3,28.7,30.25,South,188,0.0,5.0,52,0.00,,OVC,0.00,VWS V14.01,2013-01-25 09:53:00,
2013-01-25 03:58:00,45.4,28.8,30.25,East,99,0.0,5.0,52,0.00,,OVC,0.00,VWS V14.01,2013-01-25 09:58:00,
2013-01-25 04:03:00,45.4,28.4,30.24,ENE,75,2.0,3.0,51,0.00,,OVC,0.00,VWS V14.01,2013-01-25 10:03:00,
2013-01-25 04:08:00,45.4,28.4,30.25,ESE,112,3.0,3.0,51,0.00,,OVC,0.00,VWS V14.01,2013-01-25 10:08:00,
2013-01-25 04:13:00,45.4,28.4,30.24,East,99,3.0,5.0,51,0.00,,OVC,0.00,VWS V14.01,2013-01-25 10:13:00,
2013-01-25 04:18:00,45.4,28.8,30.24,East,99,3.0,7.0,52,0.00,,OVC,0.00,VWS V14.01,2013-01-25 10:18:00,
2013-01-25 04:23:00,45.5,28.9,30.24,ESE,106,2.0,7.0,52,0.00,,OVC,0.00,VWS V14.01,2013-01-25 10:23:00,
2013-01-25 04:28:00,45.6,29.0,30.24,South,175,1.0,7.0,52,0.00,,OVC,0.00,VWS V14.01,2013-01-25 10:28:00,
2013-01-25 04:33:00,45.6,29.5,30.24,ESE,102,0.0,1.0,53,0.00,,OVC,0.00,VWS V14.01,2013-01-25 10:33:00,
2013-01-25 04:38:00,45.6,29.5,30.24,East,101,1.0,3.0,53,0.00,,OVC,0.00,VWS V14.01,2013-01-25 10:38:00,
2013-01-25 04:43:00,45.8,29.2,30.24,SE,136,2.0,8.0,52,0.00,,OVC,0.00,VWS V14.01,2013-01-25 10:43:00,
2013-01-25 04:48:00,46.0,28.9,30.25,ESE,113,0.0,8.0,51,0.00,,OVC,0.00,VWS V14.01,2013-01-25 10:48:00,
2013-01-25 04:53:00,46.1,29.0,30.24,East,94,2.0,8.0,51,0.00,,OVC,0.00,VWS V14.01,2013-01-25 10:53:00,
2013-01-25 04:58:00,46.3,29.2,30.24,ESE,118,2.0,8.0,51,0.00,,OVC,0.00,VWS V14.01,2013-01-25 10:58:00,
2013-01-25 05:03:00,46.4,28.8,30.24,SE,136,1.0,2.0,50,0.00,,OVC,0.00,VWS V14.01,2013-01-25 11:03:00,
2013-01-25 05:08:00,46.5,28.9,30.23,SSE,155,2.0,4.0,50,0.00,,OVC,0.00,VWS V14.01,2013-01-25 11:08:00,
2013-01-25 05:13:00,46.6,28.5,30.23,ESE,103,2.0,5.0,49,0.00,,OVC,0.00,VWS V14.01,2013-01-25 11:13:00,
2013-01-25 05:18:00,46.6,28.5,30.22,East,87,3.0,8.0,49,0.00,,OVC,0.00,VWS V14.01,2013-01-25 11:18:00,
2013-01-25 05:23:00,46.6,28.5,30.23,East,92,0.0,8.0,49,0.00,,OVC,0.00,VWS V14.01,2013-01-25 11:23:00,
2013-01-25 05:28:00,46.6,28.0,30.24,NNW,341,1.0,8.0,48,0.00,,OVC,0.00,VWS V14.01,2013-01-25 11:28:00,
2013-01-25 05:33:00,46.6,28.0,30.24,ESE,117,1.0,5.0,48,0.00,,OVC,0.00,VWS V14.01,2013-01-25 11:33:00,
2013-01-25 05:38:00,46.7,28.6,30.24,South,190,0.0,5.0,49,0.00,,OVC,0.00,VWS V14.01,2013-01-25 11:38:00,
2013-01-25 05:43:00,46.7,28.1,30.24,South,169,1.0,5.0,48,0.00,,OVC,0.00,VWS V14.01,2013-01-25 11:43:00,
2013-01-25 05:48:00,46.8,27.6,30.24,South,182,1.0,6.0,47,0.00,,OVC,0.00,VWS V14.01,2013-01-25 11:48:00,
2013-01-25 05:53:00,46.9,27.7,30.24,SSE,162,0.0,6.0,47,0.00,,OVC,0.00,VWS V14.01,2013-01-25 11:53:00,
2013-01-25 05:58:00,46.9,28.2,30.24,ESE,102,1.0,6.0,48,0.00,,OVC,0.00,VWS V14.01,2013-01-25 11:58:00,
2013-01-25 06:03:00,46.9,28.2,30.24,WNW,292,0.0,3.0,48,0.00,,OVC,0.00,VWS V14.01,2013-01-25 12:03:00,
2013-01-25 06:08:00,47.0,27.8,30.23,SE,131,2.0,3.0,47,0.00,,OVC,0.00,VWS V14.01,2013-01-25 12:08:00,
2013-01-25 06:13:00,47.0,27.8,30.23,SSE,153,3.0,6.0,47,0.00,,OVC,0.00,VWS V14.01,2013-01-25 12:13:00,
2013-01-25 06:18:00,47.1,27.9,30.23,SE,126,1.0,7.0,47,0.00,,OVC,0.00,VWS V14.01,2013-01-25 12:18:00,
2013-01-25 06:23:00,47.1,27.9,30.23,East,93,3.0,7.0,47,0.00,,OVC,0.00,VWS V14.01,2013-01-25 12:23:00,
2013-01-25 06:28:00,47.1,27.4,30.23,NE,48,3.0,7.0,46,0.00,,OVC,0.00,VWS V14.01,2013-01-25 12:28:00,
2013-01-25 06:33:00,47.1,27.4,30.23,SSE,153,5.0,5.0,46,0.00,,OVC,0.00,VWS V14.01,2013-01-25 12:33:00,
2013-01-25 06:38:00,47.1,27.4,30.24,SE,144,0.0,6.0,46,0.00,,OVC,0.00,VWS V14.01,2013-01-25 12:38:00,
2013-01-25 06:43:00,47.2,27.5,30.24,WSW,248,0.0,6.0,46,0.00,,OVC,0.00,VWS V14.01,2013-01-25 12:43:00,
2013-01-25 06:48:00,47.2,28.5,30.24,SSE,159,1.0,6.0,48,0.00,,OVC,0.00,VWS V14.01,2013-01-25 12:48:00,
2013-01-25 06:53:00,47.2,28.0,30.24,SSE,149,3.0,6.0,47,0.00,,OVC,0.00,VWS V14.01,2013-01-25 12:53:00,
2013-01-25 06:58:00,47.3,27.6,30.24,SE,134,0.0,6.0,46,0.00,,OVC,0.00,VWS V14.01,2013-01-25 12:58:00,
2013-01-25 07:03:00,47.3,27.6,30.24,East,88,0.0,4.0,46,0.00,,OVC,0.00,VWS V14.01,2013-01-25 13:03:00,
2013-01-25 07:08:00,47.3,28.1,30.24,East,85,5.0,5.0,47,0.00,,OVC,0.00,VWS V14.01,2013-01-25 13:08:00,
2013-01-25 07:13:00,47.4,27.7,30.24,East,82,1.0,5.0,46,0.00,,OVC,0.00,VWS V14.01,2013-01-25 13:13:00,
2013-01-25 07:18:00,47.4,28.2,30.24,ESE,109,0.0,5.0,47,0.00,,OVC,0.00,VWS V14.01,2013-01-25 13:18:00,
2013-01-25 07:23:00,47.4,27.7,30.24,SSE,163,1.0,5.0,46,0.00,,OVC,0.00,VWS V14.01,2013-01-25 13:23:00,
2013-01-25 07:28:00,47.5,27.8,30.24,SE,134,0.0,5.0,46,0.00,,OVC,0.00,VWS V14.01,2013-01-25 13:28:00,
2013-01-25 07:33:00,47.5,27.8,30.23,SSE,155,3.0,6.0,46,0.00,,OVC,0.00,VWS V14.01,2013-01-25 13:33:00,
2013-01-25 07:38:00,47.6,28.4,30.23,East,90,1.0,6.0,47,0.00,,OVC,0.00,VWS V14.01,2013-01-25 13:38:00,
2013-01-25 07:43:00,47.7,29.0,30.23,SSE,159,0.0,6.0,48,0.00,,OVC,0.00,VWS V14.01,2013-01-25 13:43:00,
2013-01-25 07:48:00,47.8,29.1,30.23,SSE,159,0.0,6.0,48,0.00,,OVC,0.00,VWS V14.01,2013-01-25 13:48:00,
2013-01-25 07:53:00,47.9,29.2,30.23,ESE,117,1.0,6.0,48,0.00,,OVC,0.00,VWS V14.01,2013-01-25 13:53:00,
2013-01-25 07:58:00,48.0,29.3,30.22,SSE,157,1.0,6.0,48,0.00,,OVC,0.00,VWS V14.01,2013-01-25 13:58:00,
2013-01-25 08:03:00,48.1,28.8,30.22,North,360,0.0,1.0,47,0.00,,OVC,0.00,VWS V14.01,2013-01-25 14:03:00,
2013-01-25 08:08:00,48.3,29.5,30.23,ESE,103,0.0,6.0,48,0.00,,OVC,0.00,VWS V14.01,2013-01-25 14:08:00,
2013-01-25 08:13:00,48.3,29.0,30.23,WSW,241,0.0,6.0,47,0.00,,OVC,0.00,VWS V14.01,2013-01-25 14:13:00,
2013-01-25 08:18:00,48.4,29.1,30.23,SSE,158,0.0,6.0,47,0.00,,OVC,0.00,VWS V14.01,2013-01-25 14:18:00,
2013-01-25 08:23:00,48.5,29.2,30.22,South,173,2.0,7.0,47,0.00,,OVC,0.00,VWS V14.01,2013-01-25 14:23:00,
2013-01-25 08:28:00,48.6,29.8,30.22,East,90,0.0,7.0,48,0.00,,OVC,0.00,VWS V14.01,2013-01-25 14:28:00,
2013-01-25 08:33:00,48.8,30.0,30.23,ESE,109,0.0,5.0,48,0.00,,OVC,0.00,VWS V14.01,2013-01-25 14:33:00,
2013-01-25 08:38:00,49.0,30.2,30.23,SSE,163,1.0,8.0,48,0.00,,OVC,0.00,VWS V14.01,2013-01-25 14:38:00,
2013-01-25 08:43:00,49.2,30.9,30.23,ESE,116,4.0,8.0,49,0.00,,OVC,0.00,VWS V14.01,2013-01-25 14:43:00,
2013-01-25 08:48:00,49.3,29.9,30.24,SE,132,2.0,8.0,47,0.00,,OVC,0.00,VWS V14.01,2013-01-25 14:48:00,
2013-01-25 08:53:00,49.4,30.5,30.24,SE,146,0.0,8.0,48,0.00,,OVC,0.00,VWS V14.01,2013-01-25 14:53:00,
2013-01-25 08:58:00,49.5,31.1,30.24,SE,143,2.0,8.0,49,0.00,,OVC,0.00,VWS V14.01,2013-01-25 14:58:00,
2013-01-25 09:03:00,49.7,31.3,30.24,ESE,115,1.0,2.0,49,0.00,,OVC,0.00,VWS V14.01,2013-01-25 15:03:00,
2013-01-25 09:08:00,49.8,31.4,30.24,ESE,119,0.0,4.0,49,0.00,,OVC,0.00,VWS V14.01,2013-01-25 15:08:00,
2013-01-25 09:13:00,49.9,32.0,30.23,ESE,119,1.0,4.0,50,0.00,,OVC,0.00,VWS V14.01,2013-01-25 15:13:00,
2013-01-25 09:18:00,50.1,32.2,30.23,East,98,0.0,5.0,50,0.00,,OVC,0.00,VWS V14.01,2013-01-25 15:18:00,
2013-01-25 09:23:00,50.4,32.0,30.23,East,88,2.0,5.0,49,0.00,,OVC,0.00,VWS V14.01,2013-01-25 15:23:00,
2013-01-25 09:28:00,50.8,31.8,30.23,SE,125,2.0,5.0,48,0.00,,OVC,0.00,VWS V14.01,2013-01-25 15:28:00,
2013-01-25 09:33:00,51.2,32.7,30.23,ENE,72,8.0,8.0,49,0.00,,OVC,0.00,VWS V14.01,2013-01-25 15:33:00,
2013-01-25 09:38:00,51.7,33.7,30.23,SSE,148,2.0,8.0,50,0.00,,OVC,0.00,VWS V14.01,2013-01-25 15:38:00,
2013-01-25 09:43:00,52.1,33.5,30.23,East,83,2.0,8.0,49,0.00,,OVC,0.00,VWS V14.01,2013-01-25 15:43:00,
2013-01-25 09:48:00,52.3,33.7,30.23,ESE,115,1.0,8.0,49,0.00,,OVC,0.00,VWS V14.01,2013-01-25 15:48:00,
2013-01-25 09:53:00,52.5,33.9,30.23,SSE,159,2.0,8.0,49,0.00,,OVC,0.00,VWS V14.01,2013-01-25 15:53:00,
2013-01-25 09:58:00,52.7,35.6,30.23,ESE,121,2.0,8.0,52,0.00,,OVC,0.00,VWS V14.01,2013-01-25 15:58:00,
2013-01-25 10:03:00,52.9,35.3,30.23,SSE,167,1.0,2.0,51,0.00,,OVC,0.00,VWS V14.01,2013-01-25 16:03:00,
2013-01-25 10:08:00,53.1,36.4,30.23,East,95,0.0,4.0,53,0.00,,OVC,0.00,VWS V14.01,2013-01-25 16:08:00,
2013-01-25 10:13:00,53.4,35.7,30.23,South,174,1.0,4.0,51,0.00,,OVC,0.00,VWS V14.01,2013-01-25 16:13:00,
2013-01-25 10:18:00,53.7,36.5,30.23,SE,136,3.0,4.0,52,0.00,,OVC,0.00,VWS V14.01,2013-01-25 16:18:00,
2013-01-25 10:23:00,53.9,37.2,30.23,South,180,4.0,4.0,53,0.00,,OVC,0.00,VWS V14.01,2013-01-25 16:23:00,
2013-01-25 10:28:00,54.2,37.5,30.22,SSE,151,0.0,5.0,53,0.00,,OVC,0.00,VWS V14.01,2013-01-25 16:28:00,
2013-01-25 10:33:00,54.5,38.2,30.21,South,186,3.0,4.0,54,0.00,,OVC,0.00,VWS V14.01,2013-01-25 16:33:00,
2013-01-25 10:38:00,55.3,39.4,30.21,SSE,165,2.0,4.0,55,0.00,,OVC,0.00,VWS V14.01,2013-01-25 16:38:00,
2013-01-25 10:43:00,56.4,41.4,30.20,South,181,4.0,7.0,57,0.00,,OVC,0.00,VWS V14.01,2013-01-25 16:43:00,
2013-01-25 10:48:00,57.2,41.2,30.21,ESE,122,4.0,7.0,55,0.00,,OVC,0.00,VWS V14.01,2013-01-25 16:48:00,
2013-01-25 10:53:00,58.0,42.4,30.20,SW,234,3.0,7.0,56,0.00,,OVC,0.00,VWS V14.01,2013-01-25 16:53:00,
2013-01-25 10:58:00,58.5,42.9,30.19,SSW,197,3.0,7.0,56,0.00,,OVC,0.00,VWS V14.01,2013-01-25 16:58:00,
2013-01-25 11:03:00,59.4,44.6,30.18,South,177,1.0,4.0,58,0.00,,OVC,0.00,VWS V14.01,2013-01-25 17:03:00,
2013-01-25 11:08:00,60.5,45.7,30.18,SSE,166,1.0,5.0,58,0.00,,OVC,0.00,VWS V14.01,2013-01-25 17:08:00,
2013-01-25 11:13:00,61.4,46.0,30.18,SW,229,2.0,7.0,57,0.00,,OVC,0.00,VWS V14.01,2013-01-25 17:13:00,
2013-01-25 11:18:00,62.5,47.1,30.18,SW,230,4.0,7.0,57,0.00,,OVC,0.00,VWS V14.01,2013-01-25 17:18:00,
2013-01-25 11:23:00,63.1,47.6,30.17,WSW,246,5.0,7.0,57,0.00,,OVC,0.00,VWS V14.01,2013-01-25 17:23:00,
2013-01-25 11:28:00,63.1,47.6,30.16,SW,225,0.0,7.0,57,0.00,,OVC,0.00,VWS V14.01,2013-01-25 17:28:00,
2013-01-25 11:33:00,63.3,48.7,30.16,South,172,4.0,5.0,59,0.00,,OVC,0.00,VWS V14.01,2013-01-25 17:33:00,
2013-01-25 11:38:00,63.7,48.7,30.16,SSW,211,0.0,8.0,58,0.00,,OVC,0.00,VWS V14.01,2013-01-25 17:38:00,
2013-01-25 11:43:00,64.4,48.8,30.16,SSW,205,1.0,8.0,57,0.00,,OVC,0.00,VWS V14.01,2013-01-25 17:43:00,
2013-01-25 11:48:00,64.7,49.6,30.16,South,187,2.0,9.0,58,0.00,,OVC,0.00,VWS V14.01,2013-01-25 17:48:00,
2013-01-25 11:52:00,64.9,50.2,30.15,SSE,165,7.0,9.0,59,0.00,,OVC,0.00,VWS V14.01,2013-01-25 17:52:00,
2013-01-25 11:58:00,65.0,50.8,30.15,SSW,205,0.0,9.0,60,0.00,,OVC,0.00,VWS V14.01,2013-01-25 17:58:00,
2013-01-25 12:03:00,65.4,50.7,30.14,WSW,245,5.0,7.0,59,0.00,,OVC,0.00,VWS V14.01,2013-01-25 18:03:00,
2013-01-25 12:07:00,65.4,50.7,30.14,SSE,148,4.0,10.0,59,0.00,,OVC,0.00,VWS V14.01,2013-01-25 18:07:00,
2013-01-25 12:13:00,65.5,51.3,30.14,SW,232,4.0,10.0,60,0.00,,OVC,0.00,VWS V14.01,2013-01-25 18:13:00,
2013-01-25 12:18:00,65.5,51.7,30.14,SW,229,7.0,10.0,61,0.00,,OVC,0.00,VWS V14.01,2013-01-25 18:18:00,
2013-01-25 12:23:00,65.2,51.9,30.14,SW,234,4.0,11.0,62,0.00,,OVC,0.00,VWS V14.01,2013-01-25 18:23:00,
2013-01-25 12:27:00,65.1,52.2,30.13,SSW,194,2.0,11.0,63,0.00,,OVC,0.00,VWS V14.01,2013-01-25 18:27:00,
2013-01-25 12:32:00,65.1,52.2,30.13,SW,225,4.0,6.0,63,0.00,,OVC,0.00,VWS V14.01,2013-01-25 18:32:00,
2013-01-25 12:37:00,65.4,52.9,30.13,SW,232,2.0,6.0,64,0.00,,OVC,0.00,VWS V14.01,2013-01-25 18:37:00,
2013-01-25 12:42:00,65.5,52.6,30.12,SSE,165,1.0,8.0,63,0.00,,OVC,0.00,VWS V14.01,2013-01-25 18:42:00,
2013-01-25 12:47:00,65.6,53.1,30.12,SE,141,3.0,8.0,64,0.00,,OVC,0.00,VWS V14.01,2013-01-25 18:47:00,
2013-01-25 12:52:00,65.8,53.3,30.11,WSW,241,1.0,8.0,64,0.00,,OVC,0.00,VWS V14.01,2013-01-25 18:52:00,
2013-01-25 12:57:00,66.1,53.2,30.11,SE,132,0.0,8.0,63,0.00,,OVC,0.00,VWS V14.01,2013-01-25 18:57:00,
2013-01-25 13:02:00,66.3,53.3,30.10,South,190,6.0,8.0,63,0.00,,OVC,0.00,VWS V14.01,2013-01-25 19:02:00,
2013-01-25 13:07:00,66.8,53.4,30.10,SSE,163,1.0,9.0,62,0.00,,OVC,0.00,VWS V14.01,2013-01-25 19:07:00,
2013-01-25 13:12:00,67.0,53.1,30.10,SW,223,2.0,13.0,61,0.00,,OVC,0.00,VWS V14.01,2013-01-25 19:12:00,
2013-01-25 13:17:00,66.7,53.3,30.10,South,177,1.0,13.0,62,0.00,,OVC,0.00,VWS V14.01,2013-01-25 19:17:00,
2013-01-25 13:22:00,66.3,52.9,30.10,WNW,290,3.0,13.0,62,0.00,,OVC,0.00,VWS V14.01,2013-01-25 19:22:00,
2013-01-25 13:27:00,66.2,53.2,30.10,WSW,254,3.0,13.0,63,0.00,,OVC,0.00,VWS V14.01,2013-01-25 19:27:00,
2013-01-25 13:32:00,66.2,52.8,30.09,SSW,201,4.0,7.0,62,0.00,,OVC,0.00,VWS V14.01,2013-01-25 19:32:00,
2013-01-25 13:37:00,66.2,52.8,30.09,SW,217,4.0,8.0,62,0.00,,OVC,0.00,VWS V14.01,2013-01-25 19:37:00,
2013-01-25 13:42:00,66.2,52.8,30.09,WSW,254,3.0,8.0,62,0.00,,OVC,0.00,VWS V14.01,2013-01-25 19:42:00,
2013-01-25 13:47:00,66.1,52.7,30.09,WNW,289,3.0,8.0,62,0.00,,OVC,0.00,VWS V14.01,2013-01-25 19:47:00,
2013-01-25 13:52:00,66.1,52.7,30.09,West,275,2.0,8.0,62,0.00,,OVC,0.00,VWS V14.01,2013-01-25 19:52:00,
2013-01-25 13:57:00,66.1,52.7,30.09,SW,233,2.0,8.0,62,0.00,,OVC,0.00,VWS V14.01,2013-01-25 19:57:00,
2013-01-25 14:02:00,66.1,52.3,30.09,WNW,294,6.0,7.0,61,0.00,,OVC,0.00,VWS V14.01,2013-01-25 20:02:00,
2013-01-25 14:07:00,66.1,51.8,30.09,WSW,258,0.0,9.0,60,0.00,,OVC,0.00,VWS V14.01,2013-01-25 20:07:00,
2013-01-25 14:12:00,66.2,51.9,30.09,WSW,241,3.0,9.0,60,0.00,,OVC,0.00,VWS V14.01,2013-01-25 20:12:00,
2013-01-25 14:17:00,66.2,51.9,30.09,West,269,2.0,9.0,60,0.00,,OVC,0.00,VWS V14.01,2013-01-25 20:17:00,
2013-01-25 14:22:00,66.2,51.9,30.09,SW,231,1.0,9.0,60,0.00,,OVC,0.00,VWS V14.01,2013-01-25 20:22:00,
2013-01-25 14:27:00,66.1,51.8,30.09,SW,233,1.0,9.0,60,0.00,,OVC,0.00,VWS V14.01,2013-01-25 20:27:00,
2013-01-25 14:32:00,66.1,51.8,30.09,NNW,333,2.0,4.0,60,0.00,,OVC,0.00,VWS V14.01,2013-01-25 20:32:00,
2013-01-25 14:37:00,66.0,51.7,30.09,South,180,1.0,4.0,60,0.00,,OVC,0.00,VWS V14.01,2013-01-25 20:37:00,
2013-01-25 14:42:00,65.9,52.1,30.09,SW,232,2.0,5.0,61,0.00,,OVC,0.00,VWS V14.01,2013-01-25 20:42:00,
2013-01-25 14:47:00,65.9,52.1,30.09,SW,234,2.0,5.0,61,0.00,,OVC,0.00,VWS V14.01,2013-01-25 20:47:00,
2013-01-25 14:52:00,65.8,52.0,30.09,SW,223,0.0,5.0,61,0.00,,OVC,0.00,VWS V14.01,2013-01-25 20:52:00,
2013-01-25 14:57:00,65.7,51.9,30.09,ESE,103,0.0,5.0,61,0.00,,OVC,0.00,VWS V14.01,2013-01-25 20:57:00,
2013-01-25 15:02:00,65.6,52.2,30.09,SW,225,3.0,4.0,62,0.00,,OVC,0.00,VWS V14.01,2013-01-25 21:02:00,
2013-01-25 15:07:00,65.5,52.2,30.09,SW,228,2.0,5.0,62,0.00,,OVC,0.00,VWS V14.01,2013-01-25 21:07:00,
2013-01-25 15:12:00,65.5,52.2,30.09,WSW,237,0.0,5.0,62,0.00,,OVC,0.00,VWS V14.01,2013-01-25 21:12:00,
2013-01-25 15:17:00,65.4,52.5,30.09,SW,236,0.0,5.0,63,0.00,,OVC,0.00,VWS V14.01,2013-01-25 21:17:00,
2013-01-25 15:22:00,65.3,52.4,30.09,WSW,237,3.0,5.0,63,0.00,,OVC,0.00,VWS V14.01,2013-01-25 21:22:00,
2013-01-25 15:27:00,65.2,52.7,30.09,WSW,238,2.0,5.0,64,0.00,,OVC,0.00,VWS V14.01,2013-01-25 21:27:00,
2013-01-25 15:32:00,65.1,52.6,30.09,SSW,202,1.0,5.0,64,0.00,,OVC,0.00,VWS V14.01,2013-01-25 21:32:00,
2013-01-25 15:37:00,65.1,52.6,30.09,SW,220,1.0,5.0,64,0.00,,OVC,0.00,VWS V14.01,2013-01-25 21:37:00,
2013-01-25 15:42:00,65.1,53.1,30.09,WSW,253,4.0,7.0,65,0.00,,OVC,0.00,VWS V14.01,2013-01-25 21:42:00,
2013-01-25 15:47:00,65.2,53.2,30.09,WSW,242,1.0,7.0,65,0.00,,OVC,0.00,VWS V14.01,2013-01-25 21:47:00,
2013-01-25 15:52:00,65.1,53.1,30.09,SSW,209,2.0,7.0,65,0.00,,OVC,0.00,VWS V14.01,2013-01-25 21:52:00,
2013-01-25 15:57:00,65.1,53.1,30.08,SSW,199,0.0,7.0,65,0.00,,OVC,0.00,VWS V14.01,2013-01-25 21:57:00,
2013-01-25 16:02:00,65.1,53.5,30.08,WSW,244,2.0,4.0,66,0.00,,OVC,0.00,VWS V14.01,2013-01-25 22:02:00,
2013-01-25 16:07:00,65.1,53.5,30.08,WSW,240,2.0,7.0,66,0.00,,OVC,0.00,VWS V14.01,2013-01-25 22:07:00,
2013-01-25 16:12:00,65.2,53.6,30.08,SW,234,0.0,7.0,66,0.00,,OVC,0.00,VWS V14.01,2013-01-25 22:12:00,
2013-01-25 16:17:00,65.1,53.5,30.09,ENE,78,3.0,7.0,66,0.00,,OVC,0.00,VWS V14.01,2013-01-25 22:17:00,
2013-01-25 16:22:00,65.1,53.5,30.09,West,262,0.0,7.0,66,0.00,,OVC,0.00,VWS V14.01,2013-01-25 22:22:00,
2013-01-25 16:27:00,65.1,53.5,30.08,WSW,248,2.0,7.0,66,0.00,,OVC,0.00,VWS V14.01,2013-01-25 22:27:00,
2013-01-25 16:32:00,65.1,53.5,30.09,SW,227,3.0,4.0,66,0.00,,OVC,0.00,VWS V14.01,2013-01-25 22:32:00,
2013-01-25 16:37:00,65.0,53.8,30.09,SW,229,2.0,4.0,67,0.00,,OVC,0.00,VWS V14.01,2013-01-25 22:37:00,
2013-01-25 16:42:00,65.0,53.8,30.09,SW,215,2.0,5.0,67,0.00,,OVC,0.00,VWS V14.01,2013-01-25 22:42:00,
2013-01-25 16:47:00,65.0,53.8,30.09,WSW,248,1.0,7.0,67,0.00,,OVC,0.00,VWS V14.01,2013-01-25 22:47:00,
2013-01-25 16:52:00,65.0,53.8,30.10,SW,233,1.0,10.0,67,0.00,,OVC,0.00,VWS V14.01,2013-01-25 22:52:00,
2013-01-25 16:57:00,64.9,54.1,30.10,West,264,4.0,10.0,68,0.00,,OVC,0.00,VWS V14.01,2013-01-25 22:57:00,
2013-01-25 17:02:00,64.8,54.0,30.10,West,267,1.0,5.0,68,0.00,,OVC,0.00,VWS V14.01,2013-01-25 23:02:00,
2013-01-25 17:07:00,64.6,54.6,30.10,WSW,258,2.0,7.0,70,0.00,,OVC,0.00,VWS V14.01,2013-01-25 23:07:00,
2013-01-25 17:12:00,64.1,54.9,30.10,West,273,2.0,7.0,72,0.00,,OVC,0.00,VWS V14.01,2013-01-25 23:12:00,
2013-01-25 17:17:00,63.8,55.0,30.11,SW,236,0.0,7.0,73,0.00,,OVC,0.00,VWS V14.01,2013-01-25 23:17:00,
2013-01-25 17:22:00,63.4,55.0,30.11,WSW,255,1.0,15.0,74,0.00,,OVC,0.00,VWS V14.01,2013-01-25 23:22:00,
2013-01-25 17:27:00,63.2,55.2,30.11,WSW,248,3.0,15.0,75,0.00,,OVC,0.00,VWS V14.01,2013-01-25 23:27:00,
2013-01-25 17:32:00,63.0,55.3,30.11,WSW,242,4.0,7.0,76,0.00,,OVC,0.00,VWS V14.01,2013-01-25 23:32:00,
2013-01-25 17:37:00,62.9,55.2,30.11,WSW,240,3.0,9.0,76,0.00,,OVC,0.00,VWS V14.01,2013-01-25 23:37:00,
2013-01-25 17:42:00,62.7,55.4,30.11,SW,227,2.0,9.0,77,0.00,,OVC,0.00,VWS V14.01,2013-01-25 23:42:00,
2013-01-25 17:47:00,62.6,55.3,30.11,SW,215,2.0,9.0,77,0.00,,OVC,0.00,VWS V14.01,2013-01-25 23:47:00,
2013-01-25 17:52:00,62.5,55.6,30.11,SW,222,0.0,9.0,78,0.00,,OVC,0.00,VWS V14.01,2013-01-25 23:52:00,
2013-01-25 17:57:00,62.3,55.4,30.11,SW,217,2.0,9.0,78,0.00,,OVC,0.00,VWS V14.01,2013-01-25 23:57:00,
2013-01-25 18:02:00,62.1,55.5,30.11,SW,221,3.0,3.0,79,0.00,,OVC,0.00,VWS V14.01,2013-01-26 00:02:00,
2013-01-25 18:07:00,62.0,55.8,30.11,SW,232,0.0,4.0,80,0.00,,OVC,0.00,VWS V14.01,2013-01-26 00:07:00,
2013-01-25 18:12:00,61.9,55.7,30.12,SW,216,0.0,4.0,80,0.00,,OVC,0.00,VWS V14.01,2013-01-26 00:12:00,
2013-01-25 18:17:00,61.8,55.6,30.12,SW,233,9.0,9.0,80,0.00,,OVC,0.00,VWS V14.01,2013-01-26 00:17:00,
2013-01-25 18:22:00,61.7,55.8,30.12,WSW,240,0.0,9.0,81,0.00,,OVC,0.00,VWS V14.01,2013-01-26 00:22:00,
2013-01-25 18:27:00,61.6,55.7,30.12,West,267,1.0,9.0,81,0.00,,OVC,0.00,VWS V14.01,2013-01-26 00:27:00,
2013-01-25 18:32:00,61.6,56.1,30.12,SSW,202,4.0,5.0,82,0.00,,OVC,0.00,VWS V14.01,2013-01-26 00:32:00,
2013-01-25 18:37:00,61.5,56.0,30.12,West,278,1.0,5.0,82,0.00,,OVC,0.00,VWS V14.01,2013-01-26 00:37:00,
2013-01-25 18:42:00,61.4,56.5,30.12,SW,234,4.0,5.0,84,0.00,,OVC,0.00,VWS V14.01,2013-01-26 00:42:00,
2013-01-25 18:47:00,61.1,56.6,30.12,WSW,240,4.0,5.0,85,0.00,,OVC,0.00,VWS V14.01,2013-01-26 00:47:00,
2013-01-25 18:52:00,60.7,56.5,30.12,WSW,242,1.0,5.0,86,0.00,,OVC,0.00,VWS V14.01,2013-01-26 00:52:00,
2013-01-25 18:57:00,60.4,56.8,30.12,West,265,1.0,5.0,88,0.00,,OVC,0.00,VWS V14.01,2013-01-26 00:57:00,
2013-01-25 19:02:00,60.1,56.8,30.12,West,265,1.0,2.0,89,0.00,,OVC,0.00,VWS V14.01,2013-01-26 01:02:00,
2013-01-25 19:07:00,59.9,57.0,30.12,West,267,0.0,4.0,90,0.00,,OVC,0.00,VWS V14.01,2013-01-26 01:07:00,
2013-01-25 19:12:00,59.7,57.1,30.12,West,272,2.0,4.0,91,0.01,,OVC,0.01,VWS V14.01,2013-01-26 01:12:00,
2013-01-25 19:17:00,59.5,56.9,30.13,West,272,1.0,4.0,91,0.01,,OVC,0.01,VWS V14.01,2013-01-26 01:17:00,
2013-01-25 19:22:00,59.3,57.0,30.12,WNW,296,0.0,4.0,92,0.02,,OVC,0.02,VWS V14.01,2013-01-26 01:22:00,
2013-01-25 19:27:00,59.2,56.9,30.13,WNW,296,0.0,4.0,92,0.02,,OVC,0.02,VWS V14.01,2013-01-26 01:27:00,
2013-01-25 19:32:00,59.1,57.1,30.12,WNW,296,0.0,0.0,93,0.02,,OVC,0.02,VWS V14.01,2013-01-26 01:32:00,
2013-01-25 19:37:00,58.9,56.9,30.12,WNW,296,1.0,1.0,93,0.02,,OVC,0.02,VWS V14.01,2013-01-26 01:37:00,
2013-01-25 19:42:00,58.9,56.9,30.13,WNW,296,0.0,1.0,93,0.02,,OVC,0.02,VWS V14.01,2013-01-26 01:42:00,
2013-01-25 19:47:00,58.8,57.1,30.13,WNW,296,0.0,1.0,94,0.03,,OVC,0.03,VWS V14.01,2013-01-26 01:47:00,
2013-01-25 19:52:00,58.7,57.0,30.13,WNW,296,0.0,1.0,94,0.03,,OVC,0.03,VWS V14.01,2013-01-26 01:52:00,
2013-01-25 19:57:00,58.6,56.9,30.13,WNW,296,0.0,1.0,94,0.04,,OVC,0.04,VWS V14.01,2013-01-26 01:57:00,
2013-01-25 20:02:00,58.6,56.9,30.13,WNW,296,0.0,0.0,94,0.04,,OVC,0.04,VWS V14.01,2013-01-26 02:02:00,
2013-01-25 20:07:00,58.5,56.8,30.13,WNW,296,0.0,0.0,94,0.04,,OVC,0.04,VWS V14.01,2013-01-26 02:07:00,
2013-01-25 20:12:00,58.5,56.8,30.13,WNW,296,0.0,0.0,94,0.04,,OVC,0.04,VWS V14.01,2013-01-26 02:12:00,
2013-01-25 20:17:00,58.5,57.1,30.13,WNW,296,0.0,0.0,95,0.05,,OVC,0.05,VWS V14.01,2013-01-26 02:17:00,
2013-01-25 20:22:00,58.1,56.4,30.14,WNW,289,4.0,9.0,94,0.06,,OVC,0.06,VWS V14.01,2013-01-26 02:22:00,
2013-01-25 20:27:00,56.9,54.6,30.14,WSW,246,3.0,9.0,92,0.06,,OVC,0.06,VWS V14.01,2013-01-26 02:27:00,
2013-01-25 20:32:00,55.9,53.6,30.15,NNW,329,0.0,6.0,92,0.04,,OVC,0.06,VWS V14.01,2013-01-26 02:32:00,
2013-01-25 20:37:00,55.3,53.0,30.15,WNW,286,2.0,7.0,92,0.04,,OVC,0.06,VWS V14.01,2013-01-26 02:37:00,
2013-01-25 20:42:00,54.7,52.7,30.15,NNE,21,0.0,7.0,93,0.05,,OVC,0.07,VWS V14.01,2013-01-26 02:42:00,
2013-01-25 20:47:00,54.5,52.5,30.14,North,360,0.0,7.0,93,0.06,,OVC,0.08,VWS V14.01,2013-01-26 02:47:00,
2013-01-25 20:52:00,54.3,52.6,30.15,WNW,298,0.0,7.0,94,0.06,,OVC,0.08,VWS V14.01,2013-01-26 02:52:00,
2013-01-25 20:57:00,54.1,52.4,30.15,WNW,299,0.0,7.0,94,0.06,,OVC,0.08,VWS V14.01,2013-01-26 02:57:00,
2013-01-25 21:02:00,54.1,52.4,30.15,WNW,299,0.0,0.0,94,0.04,,OVC,0.08,VWS V14.01,2013-01-26 03:02:00,
2013-01-25 21:07:00,54.0,52.3,30.15,NW,312,0.0,1.0,94,0.05,,OVC,0.09,VWS V14.01,2013-01-26 03:07:00,
2013-01-25 21:12:00,53.9,52.2,30.15,WNW,288,1.0,4.0,94,0.05,,OVC,0.09,VWS V14.01,2013-01-26 03:12:00,
2013-01-25 21:17:00,53.8,52.4,30.15,WNW,288,0.0,4.0,95,0.06,,OVC,0.10,VWS V14.01,2013-01-26 03:17:00,
2013-01-25 21:22:00,53.8,52.4,30.15,WNW,288,0.0,4.0,95,0.06,,OVC,0.10,VWS V14.01,2013-01-26 03:22:00,
2013-01-25 21:27:00,53.7,52.3,30.15,WNW,290,0.0,4.0,95,0.06,,OVC,0.10,VWS V14.01,2013-01-26 03:27:00,
2013-01-25 21:32:00,53.7,52.3,30.15,WNW,290,0.0,0.0,95,0.04,,OVC,0.10,VWS V14.01,2013-01-26 03:32:00,
2013-01-25 21:37:00,53.6,52.2,30.15,WNW,289,0.0,2.0,95,0.04,,OVC,0.10,VWS V14.01,2013-01-26 03:37:00,
2013-01-25 21:42:00,53.6,52.2,30.15,WNW,289,0.0,2.0,95,0.05,,OVC,0.11,VWS V14.01,2013-01-26 03:42:00,
2013-01-25 21:47:00,53.6,52.2,30.15,WNW,289,0.0,2.0,95,0.05,,OVC,0.11,VWS V14.01,2013-01-26 03:47:00,
2013-01-25 21:52:00,53.5,52.1,30.16,WNW,289,0.0,2.0,95,0.06,,OVC,0.12,VWS V14.01,2013-01-26 03:52:00,
2013-01-25 21:57:00,53.5,52.1,30.16,WNW,289,0.0,2.0,95,0.06,,OVC,0.12,VWS V14.01,2013-01-26 03:57:00,
2013-01-25 22:02:00,53.5,52.1,30.16,WNW,289,0.0,1.0,95,0.04,,OVC,0.12,VWS V14.01,2013-01-26 04:02:00,
2013-01-25 22:07:00,53.5,52.1,30.16,WNW,290,0.0,1.0,95,0.04,,OVC,0.12,VWS V14.01,2013-01-26 04:07:00,
2013-01-25 22:12:00,53.5,52.1,30.16,NW,309,1.0,3.0,95,0.04,,OVC,0.12,VWS V14.01,2013-01-26 04:12:00,
2013-01-25 22:17:00,53.4,52.0,30.16,West,281,1.0,3.0,95,0.04,,OVC,0.12,VWS V14.01,2013-01-26 04:17:00,
2013-01-25 22:22:00,53.3,51.9,30.17,WNW,296,0.0,3.0,95,0.04,,OVC,0.12,VWS V14.01,2013-01-26 04:22:00,
2013-01-25 22:27:00,53.3,51.9,30.17,WNW,294,0.0,3.0,95,0.04,,OVC,0.12,VWS V14.01,2013-01-26 04:27:00,
2013-01-25 22:32:00,53.1,51.7,30.16,WNW,297,0.0,0.0,95,0.02,,OVC,0.12,VWS V14.01,2013-01-26 04:32:00,
2013-01-25 22:37:00,53.1,51.7,30.16,West,263,0.0,2.0,95,0.02,,OVC,0.12,VWS V14.01,2013-01-26 04:37:00,
2013-01-25 22:42:00,53.0,51.6,30.16,West,262,0.0,2.0,95,0.02,,OVC,0.12,VWS V14.01,2013-01-26 04:42:00,
2013-01-25 22:47:00,53.0,51.6,30.15,West,262,0.0,2.0,95,0.02,,OVC,0.12,VWS V14.01,2013-01-26 04:47:00,
2013-01-25 22:52:00,52.9,51.5,30.15,West,262,0.0,2.0,95,0.02,,OVC,0.12,VWS V14.01,2013-01-26 04:52:00,
2013-01-25 22:57:00,52.9,51.5,30.15,West,262,0.0,2.0,95,0.02,,OVC,0.12,VWS V14.01,2013-01-26 04:57:00,
2013-01-25 23:00:00,52.9,51.5,30.15,West,262,0.0,2.0,95,0.02,,OVC,0.12,VWS V14.01,2013-01-26 05:00:00,
2013-01-25 23:02:00,52.8,51.4,30.15,WNW,294,2.0,2.0,95,0.00,,OVC,0.12,VWS V14.01,2013-01-26 05:02:00,
2013-01-25 23:07:00,52.8,51.4,30.15,WNW,298,0.0,2.0,95,0.00,,OVC,0.12,VWS V14.01,2013-01-26 05:07:00,
2013-01-25 23:12:00,52.7,51.3,30.15,WNW,298,0.0,2.0,95,0.00,,OVC,0.12,VWS V14.01,2013-01-26 05:12:00,
2013-01-25 23:17:00,52.7,51.3,30.16,WNW,298,0.0,2.0,95,0.00,,OVC,0.12,VWS V14.01,2013-01-26 05:17:00,
2013-01-25 23:22:00,52.6,51.2,30.16,WNW,298,0.0,2.0,95,0.01,,OVC,0.13,VWS V14.01,2013-01-26 05:22:00,
2013-01-25 23:27:00,52.6,51.2,30.16,WNW,298,0.0,2.0,95,0.01,,OVC,0.13,VWS V14.01,2013-01-26 05:27:00,
2013-01-25 23:32:00,52.5,51.1,30.16,WNW,298,1.0,1.0,95,0.01,,OVC,0.13,VWS V14.01,2013-01-26 05:32:00,
2013-01-25 23:37:00,52.5,51.1,30.16,North,351,1.0,2.0,95,0.01,,OVC,0.13,VWS V14.01,2013-01-26 05:37:00,
2013-01-25 23:42:00,52.4,51.0,30.15,NW,306,0.0,3.0,95,0.01,,OVC,0.13,VWS V14.01,2013-01-26 05:42:00,
2013-01-25 23:47:00,52.3,50.9,30.15,North,5,0.0,3.0,95,0.01,,OVC,0.13,VWS V14.01,2013-01-26 05:47:00,
2013-01-25 23:52:00,52.1,50.7,30.16,North,9,0.0,3.0,95,0.01,,OVC,0.13,VWS V14.01,2013-01-26 05:52:00,
2013-01-25 23:57:00,52.1,50.7,30.16,North,5,0.0,3.0,95,0.01,,OVC,0.13,VWS V14.01,2013-01-26 05:57:00,